EW2748 Weather Reports


Display with metric or nautical units.
time (UTC)temp
F
wind
direction
speed
MPH
gust
MPH
rain 1hr
in
rain 24hr
in
rain mn
in
humidity
%
barometer
mb
20260831222518 90 79 0.0 4.0 0.00 0.00 0.00 56 1019.0
20260831222009 90 117 0.0 3.0 0.00 0.00 0.00 54 1018.9
20260831221527 90 207 0.0 4.0 0.00 0.00 0.00 54 1018.9
20260831221015 91 103 1.0 4.0 0.00 0.00 0.00 53 1019.0
20260831220520 91 143 1.0 7.0 0.00 0.00 0.00 53 1019.1
20260831220026 91 96 2.0 7.0 0.00 0.00 0.00 53 1019.1
20260831215512 91 155 2.0 5.0 0.00 0.00 0.00 53 1019.0
20260831215017 91 75 2.0 5.0 0.00 0.00 0.00 53 1019.1
20260831214521 91 84 1.0 5.0 0.00 0.00 0.00 53 1019.3
20260831214011 91 103 2.0 5.0 0.00 0.00 0.00 53 1019.2
20260831213518 91 198 0.0 4.0 0.00 0.00 0.00 54 1019.0
20260831213048 91 181 0.0 5.0 0.00 0.00 0.00 55 1019.1
20260831212511 91 128 1.0 5.0 0.00 0.00 0.00 53 1019.1
20260831212012 92 168 0.0 4.0 0.00 0.00 0.00 52 1019.3
20260831211536 92 220 0.0 4.0 0.00 0.00 0.00 53 1019.2
20260831211008 92 111 0.0 5.0 0.00 0.00 0.00 52 1019.3
20260831210515 92 111 2.0 5.0 0.00 0.00 0.00 51 1019.3
20260831210031 93 123 0.0 3.0 0.00 0.00 0.00 50 1019.5
20260831205520 93 269 0.0 3.0 0.00 0.00 0.00 51 1019.5
20260831205008 93 96 1.0 2.0 0.00 0.00 0.00 49 1019.4
20260831204530 93 214 0.0 3.0 0.00 0.00 0.00 50 1019.5
20260831204016 92 175 1.0 3.0 0.00 0.00 0.00 48 1019.7
20260831203517 92 106 2.0 3.0 0.00 0.00 0.00 49 1019.7
20260831203028 93 74 2.0 3.0 0.00 0.00 0.00 49 1019.8
20260831202515 93 111 1.0 7.0 0.00 0.00 0.00 49 1019.7
20260831202015 93 86 3.0 7.0 0.00 0.00 0.00 49 1019.7
20260831201526 93 91 1.0 5.0 0.00 0.00 0.00 50 1019.9
20260831201011 93 98 1.0 4.0 0.00 0.00 0.00 49 1019.9
20260831200504 93 75 0.0 3.0 0.00 0.00 0.00 49 1019.9
20260831200018 94 103 0.0 3.0 0.00 0.00 0.00 51 1019.9
20260831195515 95 94 0.0 2.0 0.00 0.00 0.00 49 1020.1
20260831195003 95 258 0.0 2.0 0.00 0.00 0.00 48 1020.1
20260831194514 94 205 0.0 1.0 0.00 0.00 0.00 49 1020.1
20260831194009 94 239 0.0 2.0 0.00 0.00 0.00 51 1020.2
20260831193503 94 141 0.0 3.0 0.00 0.00 0.00 50 1020.2
20260831193011 93 191 0.0 3.0 0.00 0.00 0.00 53 1020.3
20260831192509 93 100 0.0 2.0 0.00 0.00 0.00 53 1020.3
20260831192010 94 77 0.0 1.0 0.00 0.00 0.00 52 1020.4
20260831191504 94 120 0.0 2.0 0.00 0.00 0.00 51 1020.6
20260831191006 94 110 0.0 2.0 0.00 0.00 0.00 54 1020.6
20260831190507 94 187 0.0 1.0 0.00 0.00 0.00 53 1020.6
20260831190027 94 96 0.0 2.0 0.00 0.00 0.00 52 1020.7
20260831185508 94 129 0.0 2.0 0.00 0.00 0.00 54 1020.7
20260831185006 94 252 0.0 1.0 0.00 0.00 0.00 52 1020.8
20260831184527 93 285 0.0 2.0 0.00 0.00 0.00 53 1020.8
20260831184006 94 289 1.0 2.0 0.00 0.00 0.00 51 1020.9
20260831183503 94 96 0.0 2.0 0.00 0.00 0.00 55 1021.0
20260831183020 93 279 1.0 3.0 0.00 0.00 0.00 56 1020.9
20260831182518 93 82 0.0 4.0 0.00 0.00 0.00 55 1021.2
20260831182007 93 288 0.0 4.0 0.00 0.00 0.00 55 1021.2
20260831181514 94 262 0.0 4.0 0.00 0.00 0.00 56 1021.2
20260831181011 94 136 0.0 1.0 0.00 0.00 0.00 56 1021.2
20260831180503 93 126 0.0 1.0 0.00 0.00 0.00 56 1021.1
20260831180011 93 249 0.0 1.0 0.00 0.00 0.00 58 1021.3
20260831175508 92 308 0.0 1.0 0.00 0.00 0.00 56 1021.5
20260831175010 92 280 0.0 2.0 0.00 0.00 0.00 58 1021.5
20260831174508 92 242 0.0 2.0 0.00 0.00 0.00 60 1021.4
20260831174004 91 87 0.0 2.0 0.00 0.00 0.00 60 1021.4
20260831173510 90 86 0.0 2.0 0.00 0.00 0.00 59 1021.4
20260831173028 90 136 0.0 1.0 0.00 0.00 0.00 62 1021.6
20260831172504 89 261 0.0 2.0 0.00 0.00 0.00 63 1021.7
20260831172011 89 283 0.0 2.0 0.00 0.00 0.00 65 1021.7
20260831171528 88 237 0.0 1.0 0.00 0.00 0.00 67 1021.7
20260831171003 87 241 0.0 1.0 0.00 0.00 0.00 67 1021.7
20260831170507 87 288 0.0 1.0 0.00 0.00 0.00 69 1021.9
20260831170024 87 288 0.0 1.0 0.00 0.00 0.00 69 1021.9
20260831165511 87 290 0.0 1.0 0.00 0.00 0.00 69 1022.0
20260831165003 87 290 0.0 0.0 0.00 0.00 0.00 69 1022.0
20260831164516 87 294 0.0 0.0 0.00 0.00 0.00 67 1022.0
20260831164011 87 294 0.0 2.0 0.00 0.00 0.00 66 1022.0
20260831163504 88 294 0.0 3.0 0.00 0.00 0.00 68 1022.1
20260831163015 87 271 0.0 3.0 0.00 0.00 0.00 68 1022.1
20260831162508 87 290 0.0 3.0 0.00 0.00 0.00 69 1022.2
20260831162010 87 78 0.0 0.0 0.00 0.00 0.00 67 1022.2
20260831161508 87 78 0.0 1.0 0.00 0.00 0.00 68 1022.0
20260831160510 86 15 1.0 3.0 0.00 0.00 0.00 69 1022.2
20260831160036 86 272 0.0 2.0 0.00 0.00 0.00 72 1022.1
20260831155504 86 108 1.0 2.0 0.00 0.00 0.00 70 1022.3
20260831155010 85 163 0.0 4.0 0.00 0.00 0.00 72 1022.3
20260831154553 85 139 0.0 4.0 0.00 0.00 0.00 72 1022.2
20260831154003 85 136 0.0 4.0 0.00 0.00 0.00 73 1022.2
20260831153511 84 189 0.0 1.0 0.00 0.00 0.00 72 1022.3
20260831153027 84 117 0.0 1.0 0.00 0.00 0.00 73 1022.3
20260831152512 84 217 0.0 2.0 0.00 0.00 0.00 75 1022.2
20260831152007 84 301 0.0 2.0 0.00 0.00 0.00 73 1022.3
20260831151518 84 264 0.0 3.0 0.00 0.00 0.00 76 1022.2
20260831151011 83 139 0.0 3.0 0.00 0.00 0.00 76 1022.2
20260831150506 83 274 0.0 4.0 0.00 0.00 0.00 75 1022.1
20260831150017 83 143 1.0 4.0 0.00 0.00 0.00 77 1022.4
20260831145510 83 104 0.0 4.0 0.00 0.00 0.00 76 1022.4
20260831145020 83 89 1.0 3.0 0.00 0.00 0.00 76 1022.4
20260831144513 82 254 0.0 4.0 0.00 0.00 0.00 76 1022.3
20260831144009 82 125 1.0 4.0 0.00 0.00 0.00 76 1022.3
20260831143517 82 124 1.0 3.0 0.00 0.00 0.00 78 1022.2
20260831143010 82 232 0.0 4.0 0.00 0.00 0.00 78 1022.2
20260831142504 82 215 0.0 4.0 0.00 0.00 0.00 78 1022.2
20260831142012 81 99 1.0 6.0 0.00 0.00 0.00 80 1022.3
20260831141531 81 162 2.0 6.0 0.00 0.00 0.00 79 1022.2
20260831141004 81 230 0.0 6.0 0.00 0.00 0.00 79 1022.3
20260831140510 81 113 2.0 6.0 0.00 0.00 0.00 80 1022.3
20260831140026 81 94 1.0 5.0 0.00 0.00 0.00 81 1022.2
20260831135514 80 147 2.0 5.0 0.00 0.00 0.00 80 1022.2
20260831135007 80 112 0.0 3.0 0.00 0.00 0.00 81 1022.2
20260831134527 80 114 1.0 3.0 0.00 0.00 0.00 81 1022.2
20260831134015 80 196 0.0 2.0 0.00 0.00 0.00 82 1022.3
20260831133505 79 200 0.0 2.0 0.00 0.00 0.00 83 1022.3
20260831133031 79 120 0.0 5.0 0.00 0.00 0.00 83 1022.3
20260831132510 79 144 0.0 5.0 0.00 0.00 0.00 84 1022.3
20260831132017 78 96 0.0 5.0 0.00 0.00 0.00 84 1022.3
20260831131517 78 131 0.0 4.0 0.00 0.00 0.00 85 1022.2
20260831131008 78 89 1.0 4.0 0.00 0.00 0.00 85 1022.2
20260831130513 77 103 0.0 2.0 0.00 0.00 0.00 86 1022.1
20260831130016 77 162 0.0 0.0 0.00 0.00 0.00 87 1021.9
20260831125511 77 162 0.0 2.0 0.00 0.00 0.00 87 1021.9
20260831125013 77 164 0.0 2.0 0.00 0.00 0.00 87 1021.8
20260831124549 77 136 0.0 1.0 0.00 0.00 0.00 87 1021.8
20260831124008 76 165 0.0 0.0 0.00 0.00 0.00 88 1021.7
20260831123510 76 132 0.0 0.0 0.00 0.00 0.00 88 1021.7
20260831123030 76 148 0.0 0.0 0.00 0.00 0.00 89 1021.7
20260831122518 76 136 0.0 0.0 0.00 0.00 0.00 89 1021.6
20260831122006 75 136 0.0 0.0 0.00 0.00 0.00 90 1021.6
20260831121528 75 136 0.0 0.0 0.00 0.00 0.00 91 1021.5
20260831121019 74 134 0.0 0.0 0.00 0.00 0.00 91 1021.4
20260831120506 74 135 0.0 0.0 0.00 0.00 0.00 92 1021.4
20260831120029 73 138 0.0 0.0 0.00 0.00 0.00 93 1021.3
20260831115514 73 138 0.0 0.0 0.00 0.00 0.00 94 1021.2
20260831115021 73 138 0.0 0.0 0.00 0.00 0.00 94 1021.2
20260831114533 73 138 0.0 0.0 0.00 0.00 0.00 94 1021.1
20260831114012 73 138 0.0 0.0 0.00 0.00 0.00 94 1021.1
20260831113514 73 138 0.0 0.0 0.00 0.00 0.00 93 1021.1
20260831113015 73 138 0.0 0.0 0.00 0.00 0.00 93 1021.0
20260831112511 73 138 0.0 0.0 0.00 0.00 0.00 94 1021.0
20260831112014 73 138 0.0 0.0 0.00 0.00 0.00 93 1020.9
20260831111533 73 138 0.0 0.0 0.00 0.00 0.00 93 1020.9
20260831110509 73 138 0.0 0.0 0.00 0.00 0.00 93 1020.8
20260831110032 73 138 0.0 0.0 0.00 0.00 0.00 92 1020.8
20260831105503 73 138 0.0 0.0 0.00 0.00 0.00 92 1020.8
20260831105012 73 138 0.0 0.0 0.00 0.00 0.00 92 1020.7
20260831104543 74 138 0.0 0.0 0.00 0.00 0.00 91 1020.6
20260831104016 74 138 0.0 0.0 0.00 0.00 0.00 91 1020.5
20260831103507 74 138 0.0 0.0 0.00 0.00 0.00 91 1020.5
20260831103029 74 138 0.0 0.0 0.00 0.00 0.00 91 1020.5
20260831102514 74 138 0.0 0.0 0.00 0.00 0.00 92 1020.3
20260831102019 74 138 0.0 0.0 0.00 0.00 0.00 92 1020.3
20260831101525 74 138 0.0 0.0 0.00 0.00 0.00 92 1020.3
20260831101015 74 138 0.0 0.0 0.00 0.00 0.00 92 1020.3
20260831100516 74 138 0.0 0.0 0.00 0.00 0.00 92 1020.2
20260831100014 73 138 0.0 0.0 0.00 0.00 0.00 93 1020.2
20260831095510 73 138 0.0 0.0 0.00 0.00 0.00 93 1020.2
20260831095015 73 138 0.0 0.0 0.00 0.00 0.00 92 1020.1
20260831094531 73 138 0.0 0.0 0.00 0.00 0.00 92 1020.1
20260831094010 74 138 0.0 0.0 0.00 0.00 0.00 91 1020.0
20260831093514 74 138 0.0 0.0 0.00 0.00 0.00 91 1019.9
20260831093040 74 138 0.0 0.0 0.00 0.00 0.00 91 1019.9
20260831092512 74 138 0.0 0.0 0.00 0.00 0.00 91 1019.9
20260831092012 74 138 0.0 0.0 0.00 0.00 0.00 90 1019.9
20260831091529 75 138 0.0 0.0 0.00 0.00 0.00 90 1019.8
20260831091021 75 138 0.0 0.0 0.00 0.00 0.00 90 1019.8
20260831090509 75 138 0.0 0.0 0.00 0.00 0.00 90 1019.8
20260831090026 75 138 0.0 0.0 0.00 0.00 0.00 90 1019.9
20260831085513 75 138 0.0 0.0 0.00 0.00 0.00 90 1019.9
20260831085019 75 138 0.0 1.0 0.00 0.00 0.00 90 1019.8
20260831084523 75 138 0.0 1.0 0.00 0.00 0.00 90 1019.8
20260831084013 75 138 0.0 1.0 0.00 0.00 0.00 90 1019.9
20260831083519 75 154 0.0 0.0 0.00 0.00 0.00 90 1019.7
20260831083036 74 154 0.0 0.0 0.00 0.00 0.00 91 1019.6
20260831082512 74 154 0.0 0.0 0.00 0.00 0.00 91 1019.7
20260831082017 74 154 0.0 0.0 0.00 0.00 0.00 91 1019.5
20260831081536 74 154 0.0 0.0 0.00 0.00 0.00 91 1019.6
20260831081015 74 154 0.0 0.0 0.00 0.00 0.00 91 1019.6
20260831080513 74 154 0.0 0.0 0.00 0.00 0.00 91 1019.6
20260831080033 74 154 0.0 0.0 0.00 0.00 0.00 92 1019.6
20260831075509 74 154 0.0 0.0 0.00 0.00 0.00 92 1019.4
20260831074537 73 154 0.0 0.0 0.00 0.00 0.00 93 1019.6
20260831074007 73 154 0.0 0.0 0.00 0.00 0.00 94 1019.6
20260831073511 73 154 0.0 0.0 0.00 0.00 0.00 94 1019.6
20260831073032 73 154 0.0 0.0 0.00 0.00 0.00 94 1019.6
20260831072502 73 154 0.0 0.0 0.00 0.00 0.00 93 1019.6
20260831072014 73 154 0.0 0.0 0.00 0.00 0.00 93 1019.7
20260831071530 73 154 0.0 0.0 0.00 0.00 0.00 93 1019.7
20260831071013 73 154 0.0 0.0 0.00 0.00 0.00 93 1019.7
20260831070507 73 154 0.0 0.0 0.00 0.00 0.00 93 1019.7
20260831070030 73 154 0.0 0.0 0.00 0.00 0.00 92 1019.6
20260831065518 73 154 0.0 0.0 0.00 0.00 0.00 92 1019.7
20260831065006 74 154 0.0 0.0 0.00 0.00 0.00 92 1019.6
20260831064522 74 154 0.0 0.0 0.00 0.00 0.00 92 1019.8
20260831064010 74 154 0.0 0.0 0.00 0.00 0.00 92 1019.7
20260831063014 74 154 0.0 0.0 0.00 0.00 0.00 92 1019.6
20260831062513 74 154 0.0 0.0 0.00 0.00 0.00 92 1019.8
20260831062013 74 154 0.0 0.0 0.00 0.00 0.00 92 1019.8
20260831061513 74 154 0.0 0.0 0.00 0.00 0.00 91 1019.9
20260831061010 74 154 0.0 0.0 0.00 0.00 0.00 91 1019.9
20260831060516 75 154 0.0 0.0 0.00 0.00 0.00 91 1019.8
20260831060041 75 154 0.0 0.0 0.00 0.00 0.00 91 1020.0
20260831055508 75 154 0.0 0.0 0.00 0.00 0.00 90 1019.9
20260831055010 75 154 0.0 0.0 0.00 0.00 0.00 90 1019.9
20260831054531 75 154 0.0 0.0 0.00 0.00 0.00 89 1019.8
20260831054020 75 154 0.0 0.0 0.00 0.00 0.00 89 1019.7
20260831053507 76 154 0.0 0.0 0.00 0.00 0.00 89 1019.8
20260831053030 76 154 0.0 0.0 0.00 0.00 0.00 88 1019.9
20260831052516 76 154 0.0 0.0 0.00 0.00 0.00 89 1019.8
20260831052005 75 154 0.0 0.0 0.00 0.00 0.00 89 1019.8
20260831051525 75 154 0.0 0.0 0.00 0.00 0.00 89 1019.6
20260831051014 75 154 0.0 0.0 0.00 0.00 0.00 89 1019.8
20260831050513 75 154 0.0 0.0 0.00 0.00 0.00 89 1019.8
20260831050026 75 154 0.0 0.0 0.00 0.00 0.00 89 1019.8
20260831045514 75 154 0.0 0.0 0.00 0.00 0.00 89 1019.8
20260831045018 75 154 0.0 0.0 0.00 0.00 0.00 90 1019.8
20260831044519 75 154 0.0 0.0 0.00 0.00 0.00 89 1019.6
20260831044010 75 154 0.0 0.0 0.00 0.00 0.00 90 1019.6
20260831043518 75 154 0.0 0.0 0.00 0.00 0.00 90 1019.5
20260831043032 75 154 0.0 0.0 0.00 0.00 0.00 90 1019.7
20260831042506 75 154 0.0 0.0 0.00 0.00 0.00 89 1019.8
20260831042012 75 154 0.0 0.0 0.00 0.00 0.00 89 1019.8
20260831041530 75 154 0.0 0.0 0.00 0.00 0.00 89 1019.8
20260831041020 75 154 0.0 0.0 0.00 0.00 0.00 88 1019.7
20260831040510 75 154 0.0 0.0 0.00 0.00 0.00 88 1019.9
20260831040029 75 154 0.0 0.0 0.00 0.00 0.00 88 1019.8
20260831035515 75 154 0.0 0.0 0.00 0.00 0.00 88 1019.8
20260831035008 75 154 0.0 0.0 0.00 0.00 0.00 87 1019.8
20260831034526 76 154 0.0 0.0 0.00 0.00 0.00 87 1019.9
20260831034015 76 154 0.0 0.0 0.00 0.00 0.00 87 1019.9
20260831033522 76 154 0.0 0.0 0.00 0.00 0.00 86 1019.8
20260831033022 76 154 0.0 0.0 0.00 0.00 0.00 86 1019.9
20260831032513 76 154 0.0 0.0 0.00 0.00 0.00 85 1019.9
20260831032015 76 154 0.0 0.0 0.00 0.00 0.00 85 1020.0
20260831031525 76 154 0.0 0.0 0.00 0.00 0.00 85 1020.0
20260831031009 76 154 0.0 0.0 0.00 0.00 0.00 85 1020.0
20260831030514 76 154 0.0 0.0 0.00 0.00 0.00 85 1020.1
20260831030031 77 154 0.0 0.0 0.00 0.00 0.00 84 1020.2
20260831025509 77 154 0.0 0.0 0.00 0.00 0.00 84 1020.2
20260831025014 77 154 0.0 0.0 0.00 0.00 0.00 84 1020.1
20260831024544 77 154 0.0 0.0 0.00 0.00 0.00 84 1020.2
20260831024007 77 154 0.0 0.0 0.00 0.00 0.00 83 1020.1
20260831023511 77 154 0.0 0.0 0.00 0.00 0.00 83 1020.2
20260831023031 77 154 0.0 0.0 0.00 0.00 0.00 83 1020.0
20260831022515 78 154 0.0 0.0 0.00 0.00 0.00 82 1019.9
20260831022009 78 154 0.0 0.0 0.00 0.00 0.00 83 1019.9
20260831021527 78 154 0.0 0.0 0.00 0.00 0.00 81 1019.8
20260831021016 78 154 0.0 0.0 0.00 0.00 0.00 81 1019.8
20260831020520 78 154 0.0 0.0 0.00 0.00 0.00 82 1019.8
20260831020035 78 154 0.0 0.0 0.00 0.00 0.00 81 1019.7
20260831015517 78 154 0.0 0.0 0.00 0.00 0.00 80 1019.6
20260831015019 79 154 0.0 0.0 0.00 0.00 0.00 79 1019.5
20260831014520 79 154 0.0 0.0 0.00 0.00 0.00 79 1019.6
20260831014013 79 154 0.0 0.0 0.00 0.00 0.00 79 1019.6
20260831013034 80 154 0.0 0.0 0.00 0.00 0.00 78 1019.5
20260831012513 80 154 0.0 0.0 0.00 0.00 0.00 77 1019.4
20260831012017 80 154 0.0 0.0 0.00 0.00 0.00 76 1019.4
20260831011536 80 154 0.0 0.0 0.00 0.00 0.00 76 1019.3
20260831011009 80 154 0.0 0.0 0.00 0.00 0.00 76 1019.2
20260831010511 81 154 0.0 0.0 0.00 0.00 0.00 75 1019.1
20260831010042 81 154 0.0 0.0 0.00 0.00 0.00 75 1019.0
20260831005519 81 154 0.0 0.0 0.00 0.00 0.00 74 1018.9
20260831005013 81 154 0.0 0.0 0.00 0.00 0.00 73 1018.9
20260831004528 82 154 0.0 0.0 0.00 0.00 0.00 72 1019.0
20260831004019 82 154 0.0 0.0 0.00 0.00 0.00 71 1018.9
20260831003521 83 149 0.0 0.0 0.00 0.00 0.00 70 1018.9
20260831003026 83 150 0.0 0.0 0.00 0.00 0.00 70 1018.9
20260831002515 84 147 0.0 0.0 0.00 0.00 0.00 69 1019.0
20260831002018 84 147 0.0 0.0 0.00 0.00 0.00 68 1019.0
20260831001534 84 147 0.0 0.0 0.00 0.00 0.00 66 1018.9
20260831001016 85 147 0.0 0.0 0.00 0.00 0.00 66 1019.0
20260831000801 85 147 0.0 0.0 0.00 0.00 0.00 64 1019.1
20260831000753 86 147 0.0 0.0 0.00 0.00 0.00 63 1019.2
20260831000750 86 164 0.0 1.0 0.00 0.00 0.00 62 1019.1
20260830234011 86 104 0.0 0.0 0.00 0.00 0.00 62 1019.1
20260830233514 87 153 0.0 3.0 0.00 0.00 0.00 61 1019.2
20260830233035 87 153 0.0 3.0 0.00 0.00 0.00 60 1019.1
20260830232519 87 91 1.0 3.0 0.00 0.00 0.00 60 1019.1
20260830232015 87 96 0.0 3.0 0.00 0.00 0.00 59 1019.2
20260830231506 87 158 0.0 3.0 0.00 0.00 0.00 58 1019.2
20260830231010 87 146 0.0 4.0 0.00 0.00 0.00 58 1019.2
20260830230513 87 120 2.0 4.0 0.00 0.00 0.00 58 1019.1
20260830230014 88 150 0.0 3.0 0.00 0.00 0.00 59 1019.1
20260830225507 88 100 1.0 3.0 0.00 0.00 0.00 59 1019.2
20260830225010 88 103 1.0 2.0 0.00 0.00 0.00 59 1019.1
20260830224533 88 130 0.0 4.0 0.00 0.00 0.00 59 1019.1
20260830224005 88 122 1.0 4.0 0.00 0.00 0.00 58 1018.9
20260830223506 88 145 1.0 4.0 0.00 0.00 0.00 57 1019.1
20260830223022 88 214 0.0 5.0 0.00 0.00 0.00 58 1019.1